Regional Weather Roundup
Issued by NWS

Home | Current Version | Previous Version | Graphics & Text | Print | Product List | Glossary On
Versions: 1 2 3 4 5 6 7 8 9 10 11 12 13 14 15 16 17 18 19 20 21 22 23 24 25 26 27 28 29 30 31 32 33 34 35 36 37 38 39 40 41 42 43 44 45 46 47 48 49 50
000
ASUS43 KTOP 022259
RWRKS

WEATHER ROUNDUP FOR KANSAS
NATIONAL WEATHER SERVICE GOODLAND KS
600 PM CDT SAT MAY 02 2015

NOTE:  "FAIR" INDICATES FEW OR NO CLOUDS BELOW 12,000 FEET WITH NO
SIGNIFICANT WEATHER AND/OR OBSTRUCTIONS TO VISIBILITY.

KSZ001>006-013>018-027>032-041>047-030000-
NORTHWEST KANSAS

CITY           SKY/WX    TMP DP  RH WIND       PRES   REMARKS
GOODLAND       PTSUNNY   80  49  33 S13       29.81S
HAYS           MOSUNNY   86  45  23 S17G29    29.76F
HILL CITY      SUNNY     84  49  29 S12       29.76F
RUSSELL        MOSUNNY   87  48  25 S23G31    29.75F
$$

KSZ061>065-074>080-084>089-030000-
SOUTHWEST KANSAS

CITY           SKY/WX    TMP DP  RH WIND       PRES   REMARKS
DODGE CITY     SUNNY     85  42  22 S28G33    29.80F
ELKHART          N/A     80  42  25 S12         N/A
GARDEN CITY    MOSUNNY   85  40  20 S26G33    29.77F
LIBERAL        PTSUNNY   82  41  23 S17       29.83F
$$

KSZ066>073-081>083-090>101-030000-
SOUTHEAST KANSAS

CITY           SKY/WX    TMP DP  RH WIND       PRES   REMARKS
CHANUTE        SUNNY     77  54  44 S16       29.93F
COFFEYVILLE    LGT RAIN  77  55  46 S15       29.93F
HUTCHINSON     MOSUNNY   82  55  39 S23G32    29.83F
MEDICINE LODGE   N/A     83  52  34 S18G25    29.84S
NEWTON         MOSUNNY   77  50  38 S16G25    29.88F
PARSONS        SUNNY     78  55  44 S12G20    29.94F
WICHITA INTL   MOSUNNY   81  52  36 S25G33    29.86F
WICHITA JABRA  MOSUNNY   78  49  35 S22G30    29.87F
WINFIELD       SUNNY     79  53  40 S18G26    29.91F
$$

KSZ007>012-019>026-033>040-048>060-102>105-030000-
NORTHEAST KANSAS

CITY           SKY/WX    TMP DP  RH WIND       PRES   REMARKS
CONCORDIA      SUNNY     83  53  35 S21       29.78F
EMPORIA        SUNNY     78  52  40 S17G29    29.88F
LAWRENCE       SUNNY     76  52  43 S16G28    29.89F
MANHATTAN      SUNNY     82  52  35 S16G25    29.82F
OLATHE IND     CLOUDY    75  54  47 S13       29.92F
OLATHE EXE     PTSUNNY   74  53  48 S13       29.91F
SALINA         SUNNY     83  55  38 S16G28    29.81F
TOPEKA BILLARD MOSUNNY   77  51  40 S20G26    29.87F
TOPEKA FORBES  MOSUNNY   79  51  37 S23G29    29.87F
$$


USA.gov is the U.S. government's official web portal to all federal, state and local government web resources and services.